Weather History for KBLF - March, 2013

Change the Weather History Date:

Wednesday, March 27, 2013

  Actual Average Record
Temperature  
Mean Temperature 32 °F 49 °F  
Max Temperature 36 °F 58 °F 81 °F (2007)
Min Temperature 27 °F 40 °F 18 °F (1982)
Degree Days  
Heating Degree Days 33 16  
Month to date heating degree days 766 553  
Since 1 July heating degree days 4168 4046  
Cooling Degree Days 0 0  
Month to date cooling degree days 0 0  
Year to date cooling degree days 1 0  
Moisture  
Dew Point 23 °F    
Average Humidity 77    
Maximum Humidity 85    
Minimum Humidity 69    
Precipitation  
Precipitation 0.07 in 0.12 in 1.02 in (1994)
Month to date precipitation 3.25 3.06  
Year to date precipitation 10.92 8.72  
Snow  
Snow 0.70 in - - ()
Month to date snowfall 14.0  
Since 1 July snowfall 55.1  
Snow Depth 3.00 in    
Sea Level Pressure  
Sea Level Pressure 30.16 in    
Wind  
Wind Speed 10 mph (WNW)    
Max Wind Speed 17 mph    
Max Gust Speed 25 mph    
Visibility 6 miles    
Events Snow    
T = Trace of Precipitation, MM = Missing Value Source: NWS Daily Summary

Daily Weather History Graph

Daily Weather History Graph

Search for Another Location

Airport or City:

Trip Planner

Search our weather history database for the weather conditions in past years. The results will help you decide how hot, cold, wet, or windy it might be!

Date:

Astronomy

Mar. 27, 2013 Rise Set
Actual Time 7:17 AM EDT 7:43 PM EDT
Civil Twilight 6:51 AM EDT 8:09 PM EDT
Nautical Twilight 6:20 AM EDT 8:40 PM EDT
Astronomical Twilight 5:49 AM EDT 9:11 PM EDT
Moon 8:23 PM EDT (3/27) 7:08 AM EDT (3/27)
Length of Visible Light 13h 17m
Length of Day
12h 25m
Full, 100% of the Moon is Illuminated
Mar 27
Full
Apr 3
Last Quarter
Apr 10
New
Apr 18
First Quarter
Apr 25
Full

Hourly Weather History & Observations

Time (EDT) Temp. Windchill Dew Point Humidity Pressure Visibility Wind Dir Wind Speed Gust Speed Precip Events Conditions
12:52 AM 28.9 °F 18.6 °F 24.1 °F 82% 30.16 in 4.0 mi NW 12.7 mph 18.4 mph 0.00 in Snow Light Snow
12:59 AM 28.4 °F 19.7 °F 24.8 °F 86% 30.10 in 1.8 mi NW 9.2 mph 18.4 mph 0.01 in Snow Light Snow
1:10 AM 28.4 °F 20.4 °F 24.8 °F 86% 30.10 in 2.0 mi NW 8.1 mph - 0.01 in Snow Light Snow
1:22 AM 28.4 °F 22.2 °F 24.8 °F 86% 30.10 in 4.0 mi WNW 5.8 mph - 0.01 in Snow Light Snow
1:41 AM 28.4 °F 21.2 °F 24.8 °F 86% 30.10 in 1.8 mi Variable 6.9 mph - 0.01 in Snow Light Snow
1:52 AM 28.9 °F 21.1 °F 24.1 °F 82% 30.16 in 1.2 mi WNW 8.1 mph - 0.01 in Snow Light Snow
1:58 AM 28.4 °F 20.4 °F 24.8 °F 86% 30.10 in 0.8 mi WNW 8.1 mph - 0.01 in Snow Light Snow
2:01 AM 28.4 °F 20.4 °F 24.8 °F 86% 30.10 in 1.0 mi WNW 8.1 mph - 0.01 in Snow Light Snow
2:06 AM 28.4 °F 20.4 °F 24.8 °F 86% 30.10 in 2.0 mi WNW 8.1 mph - 0.01 in Snow Light Snow
2:15 AM 28.4 °F 19.1 °F 24.8 °F 86% 30.10 in 4.0 mi WNW 10.4 mph - 0.01 in Snow Light Snow
2:52 AM 28.9 °F 19.2 °F 23.0 °F 78% 30.15 in 7.0 mi NW 11.5 mph 18.4 mph 0.01 in Snow Light Snow
2:55 AM 28.4 °F 19.1 °F 23.0 °F 80% 30.10 in 9.0 mi NW 10.4 mph 18.4 mph 0.00 in Snow Light Snow
3:10 AM 28.4 °F 18.0 °F 21.2 °F 74% 30.10 in 5.0 mi WNW 12.7 mph 18.4 mph 0.00 in Snow Light Snow
3:38 AM 28.4 °F 20.4 °F 21.2 °F 74% 30.09 in 10.0 mi NW 8.1 mph 17.3 mph 0.00 in   Overcast
3:52 AM 28.0 °F 20.8 °F 21.9 °F 78% 30.15 in 4.0 mi WNW 6.9 mph - 0.00 in Snow Light Snow
4:14 AM 28.4 °F 19.1 °F 21.2 °F 74% 30.09 in 8.0 mi WNW 10.4 mph 17.3 mph 0.00 in Snow Light Snow
4:39 AM 28.4 °F 19.7 °F 21.2 °F 74% 30.09 in 9.0 mi WNW 9.2 mph 18.4 mph 0.00 in Snow Light Snow
4:52 AM 28.0 °F 18.6 °F 21.9 °F 78% 30.15 in 3.0 mi WNW 10.4 mph 17.3 mph 0.00 in Snow Light Snow
5:06 AM 26.6 °F 17.5 °F 21.2 °F 80% 30.09 in 2.5 mi WNW 9.2 mph - 0.01 in Snow Light Snow
5:12 AM 26.6 °F 16.2 °F 21.2 °F 80% 30.09 in 2.0 mi WNW 11.5 mph - 0.01 in Snow Light Snow
5:22 AM 26.6 °F 16.8 °F 21.2 °F 80% 30.10 in 2.0 mi WNW 10.4 mph - 0.01 in Snow Light Snow
5:32 AM 26.6 °F 17.5 °F 21.2 °F 80% 30.10 in 4.0 mi NW 9.2 mph 19.6 mph 0.01 in Snow Light Snow
5:52 AM 27.0 °F 16.7 °F 21.0 °F 78% 30.17 in 8.0 mi NW 11.5 mph 17.3 mph 0.01 in Snow Light Snow
6:01 AM 26.6 °F 17.5 °F 21.2 °F 80% 30.10 in 9.0 mi NW 9.2 mph 19.6 mph 0.00 in Snow Light Snow
6:11 AM 26.6 °F 17.5 °F 21.2 °F 80% 30.11 in 7.0 mi NW 9.2 mph 19.6 mph 0.00 in Snow Light Snow
6:52 AM 27.0 °F 18.7 °F 21.0 °F 78% 30.18 in 3.0 mi WNW 8.1 mph - 0.00 in Snow Light Snow
6:58 AM 26.6 °F 20.0 °F 21.2 °F 80% 30.12 in 1.8 mi WNW 5.8 mph - 0.00 in Snow Light Snow
7:01 AM 26.6 °F 18.2 °F 21.2 °F 80% 30.12 in 1.0 mi WNW 8.1 mph - 0.00 in Snow Light Snow
7:04 AM 26.6 °F 17.5 °F 21.2 °F 80% 30.12 in 0.8 mi NW 9.2 mph - 0.01 in Snow Light Snow
7:19 AM 26.6 °F 16.8 °F 21.2 °F 80% 30.13 in 1.2 mi NW 10.4 mph 17.3 mph 0.02 in Snow Light Snow
7:26 AM 26.6 °F 16.8 °F 21.2 °F 80% 30.13 in 3.0 mi WNW 10.4 mph 17.3 mph 0.02 in Snow Light Snow
7:39 AM 26.6 °F 16.8 °F 21.2 °F 80% 30.13 in 9.0 mi WNW 10.4 mph 19.6 mph 0.02 in   Overcast
7:52 AM 27.0 °F 17.3 °F 21.0 °F 78% 30.20 in 10.0 mi WNW 10.4 mph - 0.02 in   Overcast
8:04 AM 26.6 °F 18.2 °F 19.4 °F 74% 30.14 in 10.0 mi NW 8.1 mph 17.3 mph N/A   Overcast
8:21 AM 26.6 °F 15.7 °F 19.4 °F 74% 30.15 in 9.0 mi WNW 12.7 mph 18.4 mph 0.00 in   Overcast
8:30 AM 26.6 °F 17.5 °F 19.4 °F 74% 30.15 in 10.0 mi WNW 9.2 mph 18.4 mph 0.00 in   Overcast
8:52 AM 27.0 °F 17.3 °F 19.9 °F 75% 30.22 in 10.0 mi WNW 10.4 mph 19.6 mph 0.00 in   Overcast
9:52 AM 28.0 °F 17.0 °F 19.0 °F 69% 30.22 in 9.0 mi WNW 13.8 mph 23.0 mph 0.00 in Snow Light Snow
10:52 AM 28.9 °F 19.8 °F 19.9 °F 69% 30.22 in 9.0 mi WNW 10.4 mph 21.9 mph 0.00 in Snow Light Snow
11:52 AM 30.0 °F 20.5 °F 21.0 °F 69% 30.24 in 3.0 mi NW 11.5 mph 19.6 mph 0.00 in Snow Light Snow
12:52 PM 30.0 °F 20.5 °F 21.0 °F 69% 30.25 in 8.0 mi WNW 11.5 mph 19.6 mph 0.00 in Snow Light Snow
1:52 PM 33.1 °F 23.0 °F 21.0 °F 61% 30.24 in 10.0 mi West 15.0 mph 21.9 mph 0.00 in   Overcast
2:25 PM 33.8 °F 23.9 °F 21.2 °F 60% 30.18 in 8.0 mi NW 15.0 mph 23.0 mph 0.00 in Snow Light Snow
2:52 PM 34.0 °F 24.6 °F 21.9 °F 61% 30.23 in 9.0 mi WNW 13.8 mph 23.0 mph 0.00 in Snow Light Snow
3:03 PM 33.8 °F 25.3 °F 23.0 °F 65% 30.17 in 6.0 mi West 11.5 mph 20.7 mph 0.00 in Snow Light Snow
3:52 PM 34.0 °F 25.0 °F 21.0 °F 59% 30.21 in 10.0 mi WNW 12.7 mph 19.6 mph 0.00 in   Overcast
4:52 PM 33.1 °F 25.5 °F 21.9 °F 64% 30.21 in 7.0 mi West 9.2 mph - 0.00 in Snow Light Snow
5:52 PM 33.1 °F 26.9 °F 25.0 °F 72% 30.22 in 7.0 mi Variable 6.9 mph - 0.00 in Snow Light Snow
6:13 PM 33.8 °F 24.3 °F 24.8 °F 70% 30.17 in 9.0 mi West 13.8 mph 19.6 mph 0.00 in Snow Light Snow
6:22 PM 33.8 °F 25.3 °F 24.8 °F 70% 30.17 in 9.0 mi West 11.5 mph 18.4 mph 0.00 in Snow Light Snow
6:30 PM 33.8 °F 25.3 °F 24.8 °F 70% 30.17 in 7.0 mi WNW 11.5 mph - 0.00 in Snow Light Snow
6:52 PM 32.0 °F 25.6 °F 24.1 °F 73% 30.24 in 9.0 mi NW 6.9 mph - 0.00 in   Overcast
7:01 PM 32.0 °F 25.6 °F 24.8 °F 75% 30.18 in 10.0 mi WNW 6.9 mph - N/A   Overcast
7:52 PM 30.9 °F 24.3 °F 23.0 °F 72% 30.25 in 10.0 mi WNW 6.9 mph - 0.00 in   Overcast
8:44 PM 30.2 °F 24.3 °F 24.8 °F 80% 30.18 in 8.0 mi WNW 5.8 mph - 0.00 in Snow Light Snow
8:52 PM 30.9 °F 24.3 °F 24.1 °F 76% 30.25 in 9.0 mi WNW 6.9 mph - 0.00 in   Overcast
9:25 PM 30.2 °F 24.3 °F 24.8 °F 80% 30.18 in 10.0 mi WNW 5.8 mph - N/A   Overcast
9:50 PM 30.2 °F 23.4 °F 24.8 °F 80% 30.19 in 10.0 mi WNW 6.9 mph - N/A   Overcast
9:52 PM 30.9 °F 24.3 °F 24.1 °F 76% 30.26 in 10.0 mi WNW 6.9 mph - N/A   Overcast
10:14 PM 30.2 °F 23.4 °F 24.8 °F 80% 30.20 in 10.0 mi WNW 6.9 mph - N/A   Overcast
10:52 PM 30.9 °F 25.2 °F 24.1 °F 76% 30.26 in 9.0 mi WNW 5.8 mph - 0.00 in Snow Light Snow
11:17 PM 30.2 °F 22.6 °F 24.8 °F 80% 30.20 in 4.0 mi WNW 8.1 mph - 0.00 in Snow Light Snow
11:24 PM 30.2 °F 22.6 °F 24.8 °F 80% 30.20 in 6.0 mi WNW 8.1 mph - 0.00 in Snow Light Snow
11:52 PM 30.0 °F 23.2 °F 24.1 °F 79% 30.26 in 10.0 mi West 6.9 mph - 0.00 in   Overcast